Date String (YYYY-MM-DD hh:mm:ss) UTC,Instrument flags,Ambient pressure (hPa),Sample flow (lpm),Bypass flow (lpm),Sample temperature (°C),Ambient temperature (°C),ASC tube jacket temperature (°C),LED temperature (°C),Box temperature (°C),Sample RH (%),Span deviation,Mass concentration (μg/m³),Mass concentration (μg/m³),Mass concentration (μg/m³)
DateTimeUTC,F1_M11,P_M11,Q1_M11,Q2_M11,T1_M11,T2_M11,T3_M11,T4_M11,T5_M11,U1_M11,ZSPAN_M11,X0_M11,X2_M11,X1_M11
2023-02-10 13:00:00,,0833.1,5.03,0.00,21.5,20.1,00.0,30.5,23.1,06.6,0000.0,0005.46,0002.31,0001.95
2023-02-10 13:01:00,,0833.1,4.96,0.00,21.6,21.3,00.0,30.5,23.4,06.6,0000.0,0005.66,0002.34,0001.97
2023-02-10 13:02:00,,0833.1,5.06,0.00,21.8,22.2,00.0,30.5,23.6,06.6,0000.0,0005.80,0002.41,0002.00
2023-02-10 13:03:00,,0833.0,4.98,0.00,21.8,21.8,00.0,30.6,23.6,06.6,0000.0,0005.84,0002.44,0002.02
2023-02-10 13:04:00,,0833.0,4.99,0.00,21.8,21.2,00.0,30.6,23.5,06.6,0000.0,0005.72,0002.44,0002.04
2023-02-10 13:05:00,,0833.1,4.99,0.00,21.7,20.6,00.0,30.6,23.3,06.6,0000.0,0005.65,0002.46,0002.07
2023-02-10 13:06:00,,0833.1,4.99,0.00,21.7,20.2,00.0,30.6,23.2,06.6,0000.0,0005.36,0002.55,0002.09
2023-02-10 13:07:00,,0833.0,4.98,0.00,21.6,19.9,00.0,30.6,23.2,06.6,0000.0,0004.95,0002.59,0002.11
2023-02-10 13:08:00,,0833.1,4.98,0.00,21.6,19.7,00.0,30.6,23.1,06.7,0000.0,0005.01,0002.67,0002.13
2023-02-10 13:09:00,,0833.1,5.02,0.00,21.6,20.2,00.0,30.5,23.2,06.7,0000.0,0004.02,0002.70,0002.14
2023-02-10 13:10:00,,0833.1,4.99,0.00,21.7,21.4,00.0,30.5,23.4,06.7,0000.0,0003.93,0002.68,0002.15
2023-02-10 13:11:00,,0833.0,5.02,0.00,21.8,22.3,00.0,30.5,23.7,06.6,0000.0,0003.87,0002.68,0002.15
2023-02-10 13:12:00,,0833.0,4.97,0.00,21.9,21.9,00.0,30.6,23.7,06.6,0000.0,0003.60,0002.64,0002.16
2023-02-10 13:13:00,,0833.0,5.01,0.00,21.8,21.3,00.0,30.6,23.6,06.6,0000.0,0003.62,0002.63,0002.17
2023-02-10 13:14:00,,0833.0,5.01,0.00,21.8,20.7,00.0,30.6,23.4,06.5,0000.0,0003.64,0002.64,0002.16
2023-02-10 13:15:00,,0833.0,4.99,0.00,21.7,20.3,00.0,30.6,23.3,06.5,0000.0,0003.67,0002.65,0002.16
2023-02-10 13:16:00,,0832.9,4.99,0.00,21.7,19.9,00.0,30.6,23.2,06.5,0000.0,0003.69,0002.63,0002.15
2023-02-10 13:17:00,,0832.9,5.03,0.00,21.6,19.6,00.0,30.6,23.1,06.5,0000.0,0003.62,0002.58,0002.13
2023-02-10 13:18:00,,0832.8,5.00,0.00,21.6,20.0,00.0,30.5,23.1,06.5,0000.0,0003.49,0002.53,0002.13
2023-02-10 13:19:00,,0832.9,5.00,0.00,21.7,21.3,00.0,30.5,23.4,06.5,0000.0,0003.28,0002.46,0002.12
2023-02-10 13:20:00,,0832.9,4.97,0.00,21.8,22.3,00.0,30.5,23.7,06.4,0000.0,0003.38,0002.41,0002.10
2023-02-10 13:21:00,,0832.9,5.00,0.00,21.9,22.7,00.0,30.6,23.9,06.3,0000.0,0003.84,0002.40,0002.08
2023-02-10 13:22:00,,0832.9,5.02,0.00,22.0,22.0,00.0,30.6,23.8,06.3,0000.0,0003.86,0002.40,0002.07
2023-02-10 13:23:00,,0832.9,4.99,0.00,21.9,21.3,00.0,30.7,23.6,06.3,0000.0,0003.88,0002.39,0002.05
2023-02-10 13:24:00,,0832.8,5.00,0.00,21.9,20.7,00.0,30.7,23.5,06.3,0000.0,0003.81,0002.36,0002.02
2023-02-10 13:25:00,,0832.9,5.00,0.00,21.8,20.3,00.0,30.7,23.4,06.3,0000.0,0003.80,0002.32,0001.99
2023-02-10 13:26:00,,0832.8,5.01,0.00,21.8,19.9,00.0,30.7,23.2,06.3,0000.0,0003.75,0002.28,0001.95
2023-02-10 13:27:00,,0832.8,4.99,0.00,21.7,19.6,00.0,30.7,23.1,06.4,0000.0,0003.62,0002.21,0001.90
2023-02-10 13:28:00,,0832.9,5.01,0.00,21.6,19.4,00.0,30.6,23.0,06.4,0000.0,0003.62,0002.16,0001.87
2023-02-10 13:29:00,,0832.9,4.98,0.00,21.6,20.4,00.0,30.6,23.2,06.4,0000.0,0003.64,0002.12,0001.82
2023-02-10 13:30:00,,0832.8,5.00,0.00,21.7,21.6,00.0,30.6,23.5,06.3,0000.0,0003.62,0002.09,0001.78
2023-02-10 13:31:00,,0832.8,4.99,0.00,21.9,22.5,00.0,30.6,23.8,06.1,0000.0,0004.14,0002.04,0001.75
2023-02-10 13:32:00,,0832.8,4.99,0.00,21.9,22.4,00.0,30.6,23.8,05.8,0000.0,0004.07,0001.97,0001.72
2023-02-10 13:33:00,,0832.8,4.98,0.00,21.9,21.6,00.0,30.7,23.6,05.6,0000.0,0003.89,0001.89,0001.66
2023-02-10 13:34:00,,0832.8,5.00,0.00,21.9,20.9,00.0,30.7,23.4,05.6,0000.0,0004.38,0001.85,0001.64
2023-02-10 13:35:00,,0832.8,5.01,0.00,21.8,20.4,00.0,30.7,23.2,05.7,0000.0,0004.31,0001.81,0001.61
2023-02-10 13:36:00,,0832.8,4.99,0.00,21.7,19.9,00.0,30.7,23.1,05.7,0000.0,0004.17,0001.78,0001.59
2023-02-10 13:37:00,,0832.8,4.95,0.00,21.6,19.5,00.0,30.7,23.0,05.8,0000.0,0004.18,0001.78,0001.59
2023-02-10 13:38:00,,0832.8,5.00,0.00,21.6,19.6,00.0,30.6,22.9,05.6,0000.0,0004.30,0001.81,0001.58
2023-02-10 13:39:00,,0832.8,5.03,0.00,21.6,20.9,00.0,30.6,23.3,05.7,0000.0,0004.21,0001.78,0001.56
2023-02-10 13:40:00,,0832.7,4.98,0.00,21.8,22.1,00.0,30.6,23.6,05.5,0000.0,0004.14,0001.77,0001.54
2023-02-10 13:41:00,,0832.8,4.97,0.00,21.9,22.2,00.0,30.6,23.7,05.5,0000.0,0004.11,0001.71,0001.51
2023-02-10 13:42:00,,0832.8,4.98,0.00,21.8,21.5,00.0,30.6,23.6,05.6,0000.0,0003.68,0001.69,0001.49
2023-02-10 13:43:00,,0832.8,5.00,0.00,21.8,20.9,00.0,30.7,23.4,05.6,0000.0,0002.96,0001.71,0001.48
2023-02-10 13:44:00,,0832.8,5.01,0.00,21.8,20.4,00.0,30.7,23.3,05.5,0000.0,0003.04,0001.73,0001.48
2023-02-10 13:45:00,,0832.8,5.02,0.00,21.7,20.1,00.0,30.7,23.2,05.3,0000.0,0002.80,0001.73,0001.46
2023-02-10 13:46:00,,0832.8,5.03,0.00,21.7,19.8,00.0,30.6,23.1,05.3,0000.0,0002.53,0001.73,0001.45
2023-02-10 13:47:00,,0832.8,5.02,0.00,21.6,19.5,00.0,30.6,23.0,05.3,0000.0,0002.65,0001.70,0001.43
2023-02-10 13:48:00,,0832.8,5.06,0.00,21.6,20.1,00.0,30.6,23.2,05.4,0000.0,0003.23,0001.68,0001.40
2023-02-10 13:49:00,,0832.8,4.99,0.00,21.7,21.4,00.0,30.5,23.4,05.6,0000.0,0003.26,0001.64,0001.38
2023-02-10 13:50:00,,0832.7,4.99,0.00,21.8,22.4,00.0,30.5,23.7,05.6,0000.0,0003.31,0001.66,0001.39
2023-02-10 13:51:00,,0832.7,5.00,0.00,21.9,22.6,00.0,30.6,23.9,05.7,0000.0,0003.33,0001.67,0001.39
2023-02-10 13:52:00,,0832.8,5.00,0.00,21.9,22.0,00.0,30.6,23.8,05.8,0000.0,0003.34,0001.68,0001.41
2023-02-10 13:53:00,,0832.7,5.03,0.00,21.9,21.4,00.0,30.7,23.6,05.9,0000.0,0003.46,0001.72,0001.43
2023-02-10 13:54:00,,0832.7,5.03,0.00,21.9,20.8,00.0,30.7,23.5,05.8,0000.0,0003.56,0001.74,0001.45
2023-02-10 13:55:00,,0832.7,4.98,0.00,21.8,20.2,00.0,30.7,23.2,05.8,0000.0,0003.62,0001.75,0001.46
2023-02-10 13:56:00,,0832.7,5.02,0.00,21.7,19.6,00.0,30.7,23.0,05.7,0000.0,0003.64,0001.78,0001.50
2023-02-10 13:57:00,,0832.7,4.99,0.00,21.5,19.3,00.0,30.6,22.8,05.8,0000.0,0003.61,0001.78,0001.53
2023-02-10 13:58:00,,0832.7,4.97,0.00,21.6,20.4,00.0,30.6,23.1,05.8,0000.0,0003.63,0001.81,0001.56
2023-02-10 13:59:00,,0832.7,4.99,0.00,21.7,21.6,00.0,30.5,23.5,05.8,0000.0,0002.92,0001.85,0001.59
